Date,TemperatureHighF,TemperatureAvgF,TemperatureLowF,DewpointHighF,DewpointAvgF,DewpointLowF,HumidityHigh,HumidityAvg,HumidityLow,PressureMaxIn,PressureMinIn,WindSpeedMaxMPH,WindSpeedAvgMPH,GustSpeedMaxMPH,PrecipitationSumIn
2013-1-1,62,49,40,42,36,23,97,66,23,30.26,30.10,6,1,6,0.00
2013-1-2,68,50,36,37,32,19,86,57,16,30.15,30.04,4,1,5,0.00
2013-1-3,72,52,35,38,30,18,88,51,14,30.19,30.07,3,1,5,0.00
2013-1-4,68,49,35,36,29,17,85,53,14,30.30,30.18,5,1,7,0.00
2013-1-5,67,49,34,42,34,26,90,63,22,30.31,30.19,4,1,7,0.00
2013-1-6,58,51,45,49,45,40,98,82,60,30.22,30.04,8,2,14,0.06
2013-1-7,66,51,38,45,40,35,97,72,33,30.12,29.99,6,1,9,0.00
2013-1-8,73,53,39,54,44,35,91,75,26,30.13,30.03,5,1,6,0.00
2013-1-9,69,54,42,52,47,40,97,79,36,30.15,30.03,4,1,6,0.00
2013-1-10,60,53,46,51,37,22,95,59,24,30.08,29.91,9,4,15,0.00
2013-1-11,56,48,36,32,26,22,72,45,29,30.18,30.04,9,4,16,0.00
2013-1-12,58,45,33,34,27,19,82,54,22,30.17,30.06,6,1,10,0.00
2013-1-13,57,45,33,35,27,17,82,54,21,30.17,30.05,6,1,9,0.00
2013-1-14,56,44,33,31,16,1,78,36,12,30.34,30.14,5,1,7,0.00
2013-1-15,61,45,31,38,26,15,84,54,18,30.46,30.32,8,1,10,0.00
2013-1-16,70,50,34,38,33,28,90,59,21,30.34,30.11,6,1,7,0.00
2013-1-17,80,56,38,39,32,23,84,48,13,30.16,30.02,4,1,6,0.00
2013-1-18,81,58,40,34,29,20,74,40,11,30.13,30.01,7,1,13,0.00
2013-1-19,81,59,40,34,28,16,70,39,9,30.17,30.04,5,1,8,0.00
2013-1-20,81,58,38,35,28,16,72,40,9,30.13,29.97,4,1,8,0.00
2013-1-21,83,57,39,34,28,12,75,42,7,30.07,29.97,8,1,11,0.00
2013-1-22,81,59,40,36,28,13,72,39,9,30.08,29.98,6,1,8,0.00
2013-1-23,76,62,50,53,40,33,81,47,25,30.13,29.99,4,1,7,0.00
2013-1-24,67,59,54,57,55,51,95,85,68,30.19,30.08,7,2,13,0.60
2013-1-25,67,62,59,60,58,56,95,88,73,30.11,29.93,8,2,11,0.20
2013-1-26,67,60,55,63,58,54,99,94,71,29.99,29.88,9,1,13,0.10
2013-1-27,60,55,47,56,49,40,99,83,61,30.02,29.94,10,2,15,0.05
2013-1-28,62,50,38,44,36,28,96,65,28,30.17,30.01,11,2,18,0.01
2013-1-29,61,49,38,46,39,34,90,71,42,30.23,30.13,10,1,13,0.00
2013-1-30,70,54,40,47,42,38,98,68,33,30.33,30.19,5,1,8,0.00
2013-1-31,79,58,42,47,42,39,93,62,25,30.23,30.06,5,1,7,0.00
2013-2-1,75,59,44,51,45,40,91,64,34,30.15,30.08,7,1,10,0.00
2013-2-2,77,63,53,56,48,42,85,61,30,30.17,30.07,4,1,5,0.00
2013-2-3,77,62,52,56,52,46,94,72,36,30.12,29.97,7,1,11,0.00
2013-2-4,70,57,46,55,51,44,96,82,57,30.09,29.96,5,2,8,0.00
2013-2-5,59,55,53,52,51,50,93,85,75,30.09,29.98,5,2,7,0.00
2013-2-6,65,56,48,51,49,45,92,77,54,30.10,29.99,6,2,8,0.00
2013-2-7,62,52,42,51,47,41,97,82,67,30.13,29.97,6,2,8,0.01
2013-2-8,54,49,42,48,42,39,93,79,65,29.99,29.87,9,3,14,0.29
2013-2-9,58,46,36,44,39,34,98,79,51,30.10,29.93,5,1,9,0.01
2013-2-10,57,49,40,46,42,38,97,78,59,30.10,30.00,5,1,6,0.00
2013-2-11,63,50,39,48,41,37,96,73,38,30.23,30.05,8,2,10,0.00
2013-2-12,65,50,36,44,38,28,96,67,32,30.34,30.22,7,1,9,0.00
2013-2-13,70,52,38,45,39,35,94,65,28,30.25,30.11,5,1,10,0.00
2013-2-14,78,56,39,49,41,35,95,64,22,30.19,30.02,5,1,6,0.00
2013-2-15,82,60,43,43,33,17,82,45,9,30.17,30.08,4,1,6,0.00
2013-2-16,80,60,40,34,25,6,70,34,6,30.14,29.95,6,1,8,0.00
2013-2-17,75,55,42,57,42,30,81,63,35,30.02,29.91,6,2,9,0.09
2013-2-18,65,56,52,47,43,41,76,63,44,30.06,29.93,6,3,7,0.00
2013-2-19,55,52,47,48,44,41,90,74,64,29.98,29.70,8,3,10,0.19
2013-2-20,61,51,42,44,36,30,88,57,39,29.95,29.69,11,5,13,0.01
2013-2-21,65,55,44,44,41,37,85,60,36,30.08,29.95,5,2,8,0.00
2013-2-22,66,52,38,47,40,35,91,67,35,30.19,30.08,6,1,8,0.00
2013-2-23,66,52,40,48,42,36,90,72,42,30.16,29.91,6,2,9,0.00
2013-2-24,69,54,42,46,32,16,92,52,13,30.18,29.98,6,2,8,0.00
2013-2-25,69,53,37,41,32,21,79,51,18,30.21,30.05,7,1,10,0.00
2013-2-26,76,55,38,48,38,28,92,59,17,30.10,29.96,5,1,7,0.00
2013-2-27,77,58,42,40,30,18,80,41,11,30.24,30.10,6,1,11,0.00
2013-2-28,81,60,41,37,29,18,73,39,10,30.30,30.20,6,1,8,0.00
2013-3-1,88,65,44,38,32,21,74,37,9,30.28,30.10,6,1,6,0.00
2013-3-2,84,66,47,42,35,27,71,38,13,30.18,30.04,6,2,9,0.00
2013-3-3,71,60,52,53,48,38,90,66,33,30.08,29.95,6,2,10,0.00
2013-3-4,71,59,52,53,52,49,90,77,50,30.09,30.00,7,2,7,0.00
2013-3-5,66,56,50,53,51,47,92,82,63,30.11,30.01,7,2,8,0.00
2013-3-6,65,57,48,50,46,43,85,69,48,30.15,30.00,6,2,10,0.00
2013-3-7,61,56,53,52,49,46,93,79,60,30.00,29.83,7,3,9,0.04
2013-3-8,58,53,47,49,45,36,93,77,47,30.01,29.77,8,3,13,0.53
2013-3-9,65,55,48,49,46,41,93,74,46,30.20,30.00,6,2,10,0.00
2013-3-10,74,58,42,47,41,31,93,60,21,30.25,30.13,7,2,9,0.00
2013-3-11,78,60,43,53,43,38,90,59,27,30.17,30.01,6,1,8,0.00
2013-3-12,82,61,44,51,47,42,92,63,31,30.07,29.97,5,1,7,0.00
2013-3-13,85,65,47,58,49,43,90,61,31,30.09,29.98,6,2,8,0.00
2013-3-14,84,64,52,57,52,48,95,70,35,30.07,29.97,6,2,7,0.00
2013-3-15,74,61,54,57,54,52,95,80,48,30.03,29.91,5,2,7,0.00
2013-3-16,70,58,52,55,52,50,96,82,56,29.96,29.86,6,2,9,0.00
2013-3-17,70,60,55,54,52,51,90,77,56,29.99,29.91,6,2,11,0.00
2013-3-18,66,59,54,53,52,50,87,79,62,30.08,29.97,5,2,7,0.00
2013-3-19,69,58,49,56,52,47,96,81,61,30.11,30.02,6,2,8,0.00
2013-3-20,73,61,51,56,52,49,94,76,53,30.09,29.94,7,2,13,0.00
2013-3-21,73,61,51,57,53,49,94,75,52,29.94,29.78,7,2,8,0.00
2013-3-22,72,61,54,55,53,50,93,77,54,29.90,29.80,7,2,10,0.00
2013-3-23,73,60,51,56,52,48,93,75,47,30.00,29.90,7,2,8,0.00
2013-3-24,79,63,52,56,52,46,94,72,33,30.01,29.86,7,2,11,0.00
2013-3-25,77,62,50,56,53,48,97,75,39,29.97,29.86,6,2,7,0.00
2013-3-26,72,62,55,56,54,52,94,77,55,29.96,29.87,7,2,8,0.00
2013-3-27,70,61,55,55,53,51,89,74,54,30.03,29.91,7,2,9,0.00
2013-3-28,76,62,54,58,54,51,93,76,48,30.06,29.98,7,2,10,0.00
2013-3-29,76,62,54,59,55,51,94,80,54,30.09,30.01,7,2,11,0.00
2013-3-30,73,62,57,58,54,50,92,77,54,30.12,30.02,6,3,11,0.00
2013-3-31,69,61,56,58,55,53,90,80,65,30.11,30.03,7,3,13,0.00
2013-4-1,69,60,55,55,52,49,90,77,57,30.16,30.06,7,3,13,0.00
2013-4-2,73,61,52,56,53,49,93,75,53,30.08,29.96,6,2,11,0.00
2013-4-3,78,64,54,59,55,51,94,76,44,30.07,29.95,7,2,10,0.00
2013-4-4,73,63,58,57,55,54,91,77,54,30.09,29.98,7,3,9,0.00
2013-4-5,71,62,58,58,56,54,91,80,62,30.07,29.97,7,3,11,0.00
2013-4-6,71,62,56,56,55,53,91,78,58,30.07,29.93,7,2,9,0.00
2013-4-7,74,62,54,58,55,51,91,77,54,29.96,29.80,7,2,9,0.00
2013-4-8,70,62,56,56,44,33,91,57,27,29.81,29.62,11,5,20,0.00
2013-4-9,77,64,52,46,36,21,65,38,12,29.99,29.80,10,4,13,0.00
2013-4-10,82,65,48,46,39,25,77,44,13,30.08,29.95,9,3,12,0.00
2013-4-11,75,62,50,55,48,38,83,65,28,29.98,29.76,8,2,13,0.00
2013-4-12,75,62,57,56,53,52,87,74,50,29.88,29.75,7,2,9,0.00
2013-4-13,63,58,56,56,54,51,91,85,76,29.91,29.83,5,2,7,0.00
2013-4-14,63,58,55,53,52,50,86,78,67,29.87,29.81,6,3,9,0.00
2013-4-15,66,59,56,55,51,48,94,77,64,29.89,29.82,8,4,13,0.01
2013-4-16,66,58,51,50,44,30,80,60,32,29.97,29.86,10,4,19,0.00
2013-4-17,74,62,52,43,31,16,63,33,12,30.10,29.97,11,3,15,0.00
2013-4-18,81,63,45,40,31,15,73,38,9,30.18,30.08,9,2,13,0.00
2013-4-19,86,67,47,46,32,15,72,35,7,30.14,29.94,8,2,16,0.00
2013-4-20,85,68,51,56,48,40,86,54,23,29.98,29.84,7,2,9,0.00
2013-4-21,81,65,53,58,53,47,92,69,31,29.99,29.91,6,2,9,0.00
2013-4-22,75,63,58,55,54,52,89,73,47,29.99,29.87,7,3,10,0.00
2013-4-23,78,64,57,55,53,50,84,70,44,29.96,29.82,8,3,12,0.00
2013-4-24,64,61,58,56,53,49,86,77,62,29.97,29.88,6,2,9,0.01
2013-4-25,72,63,57,54,52,49,86,69,45,30.09,29.95,7,2,10,0.00
2013-4-26,78,64,51,55,52,48,92,67,41,30.14,30.06,6,2,11,0.00
2013-4-27,78,65,52,60,54,49,90,69,46,30.13,29.96,6,2,10,0.00
2013-4-28,79,66,59,60,57,55,90,75,51,30.00,29.83,6,2,9,0.00
2013-4-29,72,63,58,59,56,54,92,80,60,29.89,29.75,6,3,11,0.00
2013-4-30,69,62,58,57,55,53,84,78,65,29.88,29.80,6,3,8,0.00
2013-5-1,81,67,60,58,56,54,84,70,44,30.07,29.88,6,2,8,0.00
2013-5-2,96,73,53,58,48,1,96,52,3,30.09,29.95,8,2,13,0.00
2013-5-3,96,75,54,54,34,13,67,30,5,29.98,29.75,8,2,13,0.00
2013-5-4,74,65,57,58,54,45,89,70,52,29.84,29.72,8,3,10,0.00
2013-5-5,68,62,58,55,53,52,92,73,57,29.94,29.81,9,4,12,0.00
2013-5-6,69,62,56,61,56,53,97,81,57,30.00,29.88,8,3,12,0.54
2013-5-7,71,64,58,57,53,48,92,71,45,30.05,29.97,7,3,11,0.01
2013-5-8,72,64,59,56,53,49,86,67,46,30.07,30.04,8,3,11,0.00
2013-5-9,73,63,53,59,55,50,93,76,56,30.08,29.99,6,2,12,0.04
2013-5-10,81,67,56,62,58,55,96,74,51,30.07,29.97,6,2,10,0.00
2013-5-11,88,70,58,66,60,56,94,73,43,30.05,29.95,7,2,9,0.00
2013-5-12,93,75,59,66,60,54,97,66,30,30.03,29.86,6,2,8,0.00
2013-5-13,98,80,63,62,57,50,82,49,21,29.93,29.82,7,2,11,0.00
2013-5-14,84,70,60,58,56,50,83,62,36,29.98,29.87,7,2,13,0.00
2013-5-15,76,66,59,59,56,54,87,73,52,30.02,29.92,7,3,9,0.00
2013-5-16,74,64,61,59,56,54,84,76,58,29.96,29.86,6,2,7,0.00
2013-5-17,74,66,61,59,57,54,85,73,58,29.98,29.89,7,3,13,0.00
2013-5-18,76,67,59,58,56,54,88,71,53,30.02,29.93,6,2,10,0.00
2013-5-19,77,67,58,61,57,53,86,71,54,29.97,29.85,7,2,9,0.00
2013-5-20,85,69,57,63,60,54,92,73,44,29.93,29.84,7,2,9,0.00
2013-5-21,82,69,63,63,61,59,89,76,52,29.92,29.80,7,2,9,0.00
2013-5-22,76,67,63,60,58,56,84,72,55,29.83,29.74,7,3,11,0.00
2013-5-23,74,65,59,57,55,51,83,69,53,29.91,29.80,7,3,11,0.00
2013-5-24,74,65,57,57,54,51,84,70,54,29.97,29.89,7,2,11,0.00
2013-5-25,76,65,57,58,54,52,84,70,47,30.01,29.94,6,2,9,0.00
2013-5-26,71,62,57,57,55,53,89,78,57,30.03,29.97,6,1,10,0.00
2013-5-27,76,67,58,60,57,54,87,72,55,29.98,29.83,7,2,13,0.00
2013-5-28,78,68,61,62,59,56,88,74,49,29.87,29.71,8,3,11,0.00
2013-5-29,82,69,60,64,59,55,92,73,41,29.79,29.68,8,3,12,0.00
2013-5-30,80,69,59,63,60,57,92,76,54,29.86,29.74,6,2,9,0.00
2013-5-31,82,70,63,63,60,58,87,74,52,29.89,29.78,6,2,11,0.00
2013-6-1,87,71,64,66,62,60,89,76,49,29.84,29.72,6,2,9,0.00
2013-6-2,73,67,64,63,61,58,86,80,67,29.82,29.74,7,3,9,0.00
2013-6-3,76,67,63,62,59,57,83,75,61,29.87,29.78,7,3,11,0.00
2013-6-4,78,67,62,60,58,57,84,75,53,29.95,29.86,7,3,10,0.00
2013-6-5,72,64,62,59,58,57,83,80,64,29.98,29.88,6,1,7,0.00
2013-6-6,77,66,61,62,58,57,87,77,58,29.93,29.84,6,2,8,0.00
2013-6-7,78,66,61,63,59,57,87,78,58,29.89,29.75,6,2,10,0.00
2013-6-8,74,66,62,61,59,58,88,79,64,29.89,29.77,6,3,9,0.00
2013-6-9,75,66,61,62,59,56,87,79,64,29.91,29.84,7,3,10,0.00
2013-6-10,79,69,61,60,58,56,86,69,48,29.93,29.86,8,3,12,0.00
2013-6-11,85,71,61,64,60,57,91,71,42,29.92,29.85,6,2,10,0.00
2013-6-12,75,67,64,63,60,58,87,79,66,30.01,29.90,6,3,10,0.00
2013-6-13,81,68,62,62,59,58,87,74,52,29.99,29.87,6,2,11,0.00
2013-6-14,76,66,61,61,59,56,90,77,58,29.91,29.82,7,3,11,0.00
2013-6-15,77,67,61,59,58,56,86,73,52,29.96,29.87,7,3,11,0.00
2013-6-16,79,68,62,61,58,57,87,72,51,30.02,29.91,7,2,10,0.00
2013-6-17,82,69,58,63,60,55,93,73,50,29.97,29.85,7,2,11,0.00
2013-6-18,80,70,60,63,60,56,93,74,52,29.90,29.80,6,2,11,0.00
2013-6-19,80,70,61,62,58,50,91,68,36,29.85,29.75,7,2,13,0.00
2013-6-20,82,71,58,62,58,48,93,66,32,29.84,29.77,6,2,11,0.00
2013-6-21,82,70,60,62,59,54,91,68,40,29.88,29.80,6,2,9,0.00
2013-6-22,80,70,62,62,60,58,90,71,50,29.89,29.77,6,2,10,0.00
2013-6-23,76,68,64,61,59,58,87,75,58,29.87,29.76,7,3,8,0.00
2013-6-24,78,68,63,61,60,57,86,74,54,29.92,29.80,7,3,9,0.00
2013-6-25,79,69,63,64,62,60,90,78,58,29.98,29.87,5,2,10,0.00
2013-6-26,89,75,62,67,63,59,91,69,48,29.96,29.86,6,2,8,0.00
2013-6-27,91,77,65,68,65,63,93,70,44,30.00,29.92,7,2,8,0.00
2013-6-28,94,78,64,68,64,62,95,67,41,29.97,29.83,6,2,9,0.00
2013-6-29,95,81,67,70,64,62,85,60,38,29.85,29.70,7,2,10,0.00
2013-6-30,90,76,68,69,66,64,89,73,48,29.79,29.68,7,2,10,0.00
2013-7-1,96,76,66,68,65,61,94,72,32,29.86,29.76,7,2,10,0.00
2013-7-2,83,73,66,68,65,63,94,78,57,29.96,29.85,7,2,11,0.00
2013-7-3,85,73,65,68,64,62,94,77,54,29.91,29.77,6,2,7,0.00
2013-7-4,86,72,65,65,63,61,91,74,49,29.81,29.70,6,2,9,0.00
2013-7-5,83,71,65,66,63,61,89,77,53,29.82,29.72,8,2,10,0.00
2013-7-6,84,72,66,66,64,62,88,76,54,29.81,29.71,7,2,9,0.00
2013-7-7,84,73,66,67,64,62,88,74,54,29.84,29.73,6,2,10,0.00
2013-7-8,89,73,61,67,62,58,91,70,38,29.90,29.82,6,2,8,0.00
2013-7-9,84,74,64,66,63,59,86,69,48,29.97,29.86,7,2,9,0.00
2013-7-10,80,73,68,68,65,63,86,78,60,29.94,29.86,5,2,9,0.00
2013-7-11,77,72,69,68,66,64,88,81,71,29.94,29.86,5,2,6,0.00
2013-7-12,86,74,64,68,65,61,91,76,52,29.91,29.81,6,2,8,0.00
2013-7-13,86,72,63,66,62,60,90,73,44,29.93,29.82,7,2,9,0.00
2013-7-14,89,74,63,66,63,59,92,72,47,29.91,29.77,7,2,11,0.00
2013-7-15,88,74,65,66,62,54,93,68,37,29.84,29.76,6,2,10,0.00
2013-7-16,88,72,58,62,57,51,87,61,35,29.96,29.83,6,2,11,0.00
2013-7-17,90,73,57,58,54,46,83,55,23,29.99,29.92,6,2,9,0.00
2013-7-18,86,72,59,64,59,54,85,66,48,29.96,29.82,6,2,11,0.00
2013-7-19,83,71,61,65,62,57,88,73,53,29.88,29.79,6,2,8,0.00
2013-7-20,78,69,66,66,63,62,87,81,65,29.87,29.77,5,2,8,0.00
2013-7-21,73,68,65,65,63,61,90,83,77,29.90,29.78,5,2,7,0.00
2013-7-22,86,74,65,68,64,62,91,73,51,29.95,29.88,6,2,9,0.00
2013-7-23,84,72,65,66,62,59,87,72,51,30.00,29.89,7,2,10,0.00
2013-7-24,82,71,63,65,62,60,90,74,55,29.95,29.86,7,3,10,0.00
2013-7-25,84,71,62,66,62,59,90,74,53,29.99,29.89,6,2,10,0.00
2013-7-26,86,72,65,67,63,60,89,73,50,30.06,29.93,5,2,7,0.02
2013-7-27,83,72,64,66,62,59,87,73,56,29.99,29.83,6,2,9,0.00
2013-7-28,80,68,63,63,61,59,89,78,55,29.91,29.84,7,2,11,0.00
2013-7-29,82,70,63,62,59,58,86,71,49,30.01,29.89,6,2,11,0.00
2013-7-30,81,69,60,62,59,56,89,73,51,30.10,30.00,7,2,11,0.00
2013-7-31,77,67,61,62,59,57,88,76,58,30.09,29.96,6,2,9,0.00
2013-8-1,79,68,62,62,59,58,86,74,55,30.01,29.87,7,2,9,0.00
2013-8-2,82,70,63,62,60,58,88,72,46,29.95,29.86,6,2,10,0.00
2013-8-3,82,70,63,64,61,59,87,74,54,29.97,29.88,7,2,12,0.00
2013-8-4,81,68,62,64,60,59,89,79,55,30.00,29.89,6,2,9,0.00
2013-8-5,84,69,60,63,60,58,94,75,45,29.99,29.88,6,2,9,0.00
2013-8-6,83,70,62,61,59,58,90,72,46,30.01,29.93,6,2,10,0.00
2013-8-7,81,68,60,62,59,57,92,75,50,30.06,29.94,6,2,9,0.00
2013-8-8,82,69,57,63,59,55,93,73,50,29.98,29.87,5,2,8,0.00
2013-8-9,79,68,59,62,59,56,93,74,54,29.95,29.88,6,2,10,0.00
2013-8-10,79,68,61,61,59,58,92,75,52,30.01,29.92,6,2,8,0.00
2013-8-11,83,69,61,63,60,58,92,75,48,29.97,29.85,6,2,10,0.00
2013-8-12,83,70,61,64,61,57,92,75,51,29.95,29.86,7,2,10,0.00
2013-8-13,85,71,62,65,62,58,90,75,49,29.95,29.83,6,2,10,0.00
2013-8-14,84,70,63,67,63,60,90,78,54,29.90,29.79,7,2,8,0.00
2013-8-15,87,72,62,66,63,59,92,74,48,29.92,29.84,6,2,10,0.00
2013-8-16,89,75,64,67,63,56,92,69,38,29.93,29.85,6,2,10,0.00
2013-8-17,88,74,64,65,62,59,90,69,39,29.92,29.78,6,2,9,0.00
2013-8-18,82,70,62,66,62,60,93,77,56,29.89,29.79,6,2,8,0.00
2013-8-19,84,71,64,66,63,61,89,78,51,29.92,29.82,7,2,10,0.00
2013-8-20,86,71,64,65,62,60,90,74,46,29.91,29.80,5,2,8,0.00
2013-8-21,88,71,61,64,60,56,89,69,41,29.90,29.80,6,2,9,0.00
2013-8-22,91,76,62,62,58,52,86,58,28,29.90,29.76,6,2,11,0.00
2013-8-23,92,74,61,63,58,54,81,61,33,29.84,29.70,6,2,10,0.00
2013-8-24,86,71,59,65,60,56,90,70,46,29.85,29.72,6,2,9,0.00
2013-8-25,89,72,61,64,60,54,95,71,31,29.89,29.81,6,2,9,0.00
2013-8-26,94,79,66,68,60,47,85,57,31,29.88,29.77,6,2,9,0.00
2013-8-27,91,78,69,66,60,51,78,56,26,29.81,29.73,7,2,10,0.00
2013-8-28,96,80,68,66,60,51,81,54,28,29.86,29.74,6,2,11,0.00
2013-8-29,100,81,68,67,59,50,76,50,27,29.89,29.83,7,2,14,0.00
2013-8-30,94,84,75,73,66,59,67,56,44,29.94,29.86,9,3,18,0.00
2013-8-31,93,83,76,72,68,61,72,61,49,29.93,29.83,8,2,15,0.00
2013-9-1,90,80,73,72,69,65,84,70,53,29.90,29.81,7,3,15,0.00
2013-9-2,92,78,69,71,68,66,91,73,49,29.89,29.76,8,2,15,0.00
2013-9-3,98,82,71,70,67,64,86,63,35,29.87,29.77,7,2,15,0.00
2013-9-4,98,83,71,68,64,61,80,57,33,29.87,29.79,9,2,14,0.00
2013-9-5,98,83,70,68,63,58,80,53,30,29.85,29.77,6,2,15,0.00
2013-9-6,101,83,69,67,61,54,81,51,22,29.83,29.74,7,2,14,0.00
2013-9-7,99,81,69,66,61,55,77,54,28,29.83,29.75,7,2,15,0.00
2013-9-8,90,74,65,66,61,55,87,66,37,29.82,29.72,7,2,14,0.00
2013-9-9,84,71,64,64,61,59,88,73,50,29.79,29.70,6,2,13,0.00
2013-9-10,81,69,61,62,60,58,91,74,51,29.92,29.79,6,2,14,0.00
2013-9-11,80,68,59,63,60,56,90,76,55,29.99,29.89,7,2,18,0.00
2013-9-12,88,72,59,64,60,57,93,69,37,29.92,29.78,5,2,14,0.00
2013-9-13,90,74,59,66,60,55,88,64,38,29.81,29.63,5,2,12,0.00
2013-9-14,89,75,63,68,62,59,90,66,39,29.70,29.60,6,2,13,0.00
2013-9-15,94,75,62,66,62,59,90,69,38,29.74,29.67,7,2,14,0.00
2013-9-16,92,75,62,65,60,58,87,63,36,29.79,29.70,7,2,13,0.00
2013-9-17,79,69,62,64,62,58,95,80,57,29.81,29.70,6,2,12,0.00
2013-9-18,78,69,63,62,60,59,91,75,55,29.80,29.71,6,2,14,0.00
2013-9-19,81,68,60,65,61,57,94,80,56,29.81,29.73,7,2,15,0.00
2013-9-20,72,68,66,63,62,61,86,81,71,29.87,29.79,5,2,11,0.00
2013-9-21,78,69,64,61,60,58,85,73,53,29.89,29.78,8,2,16,0.00
2013-9-22,78,68,59,60,56,49,93,67,40,29.83,29.76,7,2,15,0.00
2013-9-23,95,74,56,58,50,40,85,51,17,29.87,29.77,6,1,13,0.00
2013-9-24,88,73,58,62,52,44,82,54,23,29.90,29.80,7,2,14,0.00
2013-9-25,76,67,59,62,58,51,89,73,57,29.83,29.68,7,3,17,0.00
2013-9-26,76,67,60,57,51,36,82,59,24,29.86,29.70,9,3,19,0.00
2013-9-27,85,68,51,52,44,32,86,49,15,29.96,29.86,6,2,15,0.00
2013-9-28,91,70,51,45,39,24,72,38,10,30.01,29.91,7,1,15,0.00
2013-9-29,89,69,52,52,42,33,70,42,14,30.05,29.93,6,1,14,0.00
2013-9-30,86,69,53,61,51,41,91,58,24,29.97,29.82,6,1,14,0.00
2013-10-1,81,68,56,62,58,53,90,73,43,29.92,29.83,6,2,13,0.00
2013-10-2,77,68,63,61,59,58,87,75,54,29.96,29.84,6,2,13,0.00
2013-10-3,75,67,60,61,59,57,90,77,57,29.91,29.79,7,2,15,0.00
2013-10-4,92,73,58,60,50,24,92,55,9,30.00,29.86,6,1,16,0.00
2013-10-5,92,69,53,42,34,19,58,34,8,30.09,29.99,8,2,20,0.00
2013-10-6,94,72,52,44,33,12,61,32,5,30.06,29.92,5,1,12,0.00
2013-10-7,86,68,56,60,46,34,84,50,16,29.95,29.86,6,1,13,0.00
2013-10-8,74,64,57,58,56,53,90,76,55,29.91,29.79,7,2,14,0.00
2013-10-9,66,60,51,55,51,46,88,72,56,29.81,29.69,11,4,20,0.05
2013-10-10,69,58,46,52,49,44,95,73,46,30.00,29.79,7,1,14,0.01
2013-10-11,77,61,48,57,51,46,93,73,40,30.03,29.91,6,1,13,0.00
2013-10-12,76,62,50,60,55,48,97,79,53,29.96,29.85,6,2,13,0.00
2013-10-13,71,63,56,57,55,53,92,75,57,30.00,29.91,6,2,14,0.00
2013-10-14,86,66,50,57,52,44,95,65,23,30.00,29.85,5,1,12,0.00
2013-10-15,90,69,50,49,41,31,78,44,13,29.94,29.82,8,1,16,0.00
2013-10-16,87,69,54,43,37,27,66,36,12,30.04,29.93,5,1,13,0.00
2013-10-17,84,65,49,52,42,34,71,46,17,30.01,29.88,8,1,15,0.00
2013-10-18,87,66,50,57,48,42,84,57,21,29.99,29.89,4,1,10,0.00
2013-10-19,86,66,49,61,49,44,84,59,24,30.00,29.92,7,1,14,0.00
2013-10-20,78,63,52,62,56,48,96,77,49,29.97,29.86,5,1,13,0.00
2013-10-21,78,64,55,59,56,52,96,78,45,29.97,29.86,5,2,10,0.00
2013-10-22,79,62,52,60,56,50,95,81,52,29.99,29.86,5,1,11,0.00
2013-10-23,70,63,55,58,56,53,92,80,65,29.95,29.87,6,2,12,0.00
2013-10-24,72,63,56,58,56,53,89,77,60,30.03,29.93,6,1,12,0.00
2013-10-25,77,63,54,59,56,52,93,80,53,30.11,29.97,4,1,10,0.00
2013-10-26,79,62,54,61,57,52,97,85,51,30.07,29.94,4,1,9,0.00
2013-10-27,73,62,54,61,58,52,99,87,66,29.96,29.80,6,2,12,0.01
2013-10-28,66,60,57,57,52,46,94,75,48,29.92,29.80,8,3,16,0.45
2013-10-29,67,57,48,52,50,46,95,78,50,29.99,29.91,7,2,14,0.00
2013-10-30,73,58,47,54,49,45,96,75,39,30.06,29.95,5,1,11,0.00
2013-10-31,82,62,46,51,45,33,94,61,17,30.07,29.94,5,1,11,0.00
2013-11-1,88,66,46,47,41,34,87,49,15,30.08,29.89,3,1,8,0.00
2013-11-2,83,64,49,60,48,36,93,61,21,29.96,29.84,8,2,16,0.00
2013-11-3,70,63,58,57,55,54,94,78,60,29.91,29.80,6,2,13,0.00
2013-11-4,67,61,53,55,53,50,90,76,63,29.93,29.78,7,2,14,0.00
2013-11-5,78,60,47,54,44,31,96,62,19,30.12,29.93,4,1,9,0.00
2013-11-6,84,63,44,41,33,18,75,42,9,30.18,30.07,4,1,10,0.00
2013-11-7,88,67,53,40,32,18,54,32,8,30.09,29.95,5,1,11,0.00
2013-11-8,78,62,46,56,44,36,94,56,24,30.02,29.90,5,1,10,0.00
2013-11-9,78,61,52,56,49,31,96,71,22,30.06,29.97,5,1,10,0.00
2013-11-10,84,61,48,57,47,34,86,65,17,30.11,29.99,6,1,14,0.00
2013-11-11,81,60,46,52,46,41,87,63,27,30.11,29.99,5,1,13,0.00
2013-11-12,78,61,50,52,49,45,90,67,33,30.14,30.03,2,0,5,0.00
2013-11-13,95,68,49,49,43,35,84,49,13,30.03,29.85,4,1,10,0.00
2013-11-14,92,68,51,59,44,31,92,48,13,29.90,29.75,6,1,14,0.00
2013-11-15,70,63,58,59,56,54,92,80,63,29.75,29.65,7,2,13,0.00
2013-11-16,66,60,54,55,52,49,91,75,56,29.92,29.74,6,2,13,0.00
2013-11-17,70,59,51,55,52,48,92,76,50,30.08,29.93,5,1,12,0.00
2013-11-18,67,59,49,56,53,47,94,82,66,30.14,30.02,4,1,9,0.00
2013-11-19,67,60,55,55,53,52,91,79,64,30.07,29.93,5,1,12,0.00
2013-11-20,65,60,54,57,54,51,94,83,68,29.96,29.87,4,1,8,0.04
2013-11-21,65,60,56,60,56,53,97,89,74,29.88,29.81,7,2,13,0.05
2013-11-22,63,56,51,53,48,42,95,74,50,29.94,29.82,3,1,8,0.01
2013-11-23,69,57,49,48,43,40,82,62,37,30.07,29.93,5,1,13,0.00
2013-11-24,68,56,44,46,43,40,89,65,41,30.17,30.07,5,1,12,0.00
2013-11-25,74,56,43,51,43,40,90,66,34,30.22,30.13,4,1,11,0.00
2013-11-26,80,60,44,51,44,37,89,61,22,30.17,30.01,5,1,12,0.00
2013-11-27,76,60,48,46,43,39,79,56,27,30.02,29.86,6,1,11,0.00
2013-11-28,71,58,46,53,47,40,82,67,38,30.04,29.87,7,1,15,0.00
2013-11-29,64,58,52,56,52,48,95,82,63,30.17,30.04,5,1,10,0.28
2013-11-30,77,59,50,55,49,47,96,74,37,30.17,30.04,3,1,9,0.00
2013-12-1,82,61,47,50,44,36,93,60,20,30.20,30.06,3,1,8,0.00
2013-12-2,74,57,45,48,43,36,85,64,25,30.09,29.90,3,0,7,0.00
2013-12-3,66,56,44,55,49,41,93,79,65,29.90,29.73,7,2,14,0.00
2013-12-4,63,52,43,47,40,32,92,65,43,29.95,29.76,7,1,9,0.00
2013-12-5,61,51,42,41,38,32,84,64,35,30.10,29.94,7,1,9,0.00
2013-12-6,60,49,39,44,40,36,92,72,54,30.17,30.08,6,2,10,0.00
2013-12-7,57,48,40,50,43,38,93,83,61,30.11,29.98,8,1,11,0.16
2013-12-8,57,45,34,42,37,33,96,78,44,30.19,30.08,5,1,11,0.01
2013-12-9,63,47,34,37,29,8,94,57,18,30.28,30.18,4,1,10,0.00
2013-12-10,66,48,33,36,23,10,75,45,13,30.27,30.07,7,2,13,0.00
2013-12-11,75,53,34,41,31,20,75,49,13,30.15,30.07,4,1,10,0.00
2013-12-12,67,54,42,51,42,33,92,68,33,30.20,30.11,5,1,10,0.00
2013-12-13,66,52,41,51,44,39,96,77,38,30.22,30.10,3,0,9,0.00
2013-12-14,76,54,39,45,37,28,94,60,18,30.27,30.16,4,1,9,0.00
2013-12-15,81,58,39,41,35,26,84,49,14,30.22,30.05,4,1,9,0.00
2013-12-16,87,64,46,48,41,31,79,50,14,30.10,30.01,7,1,13,0.00
2013-12-17,78,63,48,51,46,42,81,57,30,30.10,29.98,3,0,6,0.00
2013-12-18,70,60,53,57,52,47,87,74,44,29.98,29.84,6,2,12,0.00
2013-12-19,57,53,45,52,48,43,94,84,73,29.84,29.70,5,1,14,0.24
2013-12-20,63,50,40,51,45,38,97,84,57,29.94,29.76,4,1,10,0.01
2013-12-21,61,50,41,52,46,40,97,86,64,30.08,29.91,4,0,8,0.01
2013-12-22,71,53,40,52,46,39,97,80,42,30.25,30.07,3,1,9,0.01
2013-12-23,76,57,42,49,42,38,96,64,26,30.30,30.16,3,1,8,0.00
2013-12-24,80,56,43,45,41,37,90,63,22,30.18,30.07,2,0,6,0.00
2013-12-25,82,59,41,43,36,27,86,50,14,30.19,30.08,4,1,9,0.00
2013-12-26,83,58,40,35,28,14,73,40,8,30.16,30.03,4,1,8,0.00
2013-12-27,84,58,39,37,29,12,80,42,7,30.14,30.01,4,1,8,0.00
2013-12-28,72,57,47,52,40,28,94,58,20,30.02,29.90,5,1,11,0.00
2013-12-29,77,56,41,51,36,18,97,59,11,30.13,29.99,3,1,8,0.01
2013-12-30,76,55,38,38,30,19,80,47,13,30.25,30.12,3,1,8,0.00
2013-12-31,72,53,38,50,37,27,85,60,20,30.19,30.06,4,1,9,0.00
2014-1-1,74,54,40,53,44,37,93,72,30,30.13,30.02,3,0,7,0.00
2014-1-2,82,58,42,56,43,32,92,63,17,30.09,29.96,7,1,8,0.00